| time (UTC) | temp F | wind direction | speed MPH | gust MPH | rain 1hr in | rain 24hr in | rain mn in | humidity % | barometer mb |
| 20260509183100 | 73 | 223 | 1.0 | 6.0 | 0.00 | 0.00 | 0.00 | 70 | 1010.4 |
| 20260509181510 | 73 | 181 | 4.0 | 9.0 | 0.00 | 0.00 | 0.00 | 66 | 1010.7 |
| 20260509180037 | 73 | 184 | 3.0 | 8.0 | 0.00 | 0.00 | 0.00 | 66 | 1011.1 |
| 20260509174548 | 72 | 173 | 3.0 | 8.0 | 0.00 | 0.00 | 0.00 | 64 | 1011.3 |
| 20260509173018 | 71 | 219 | 2.0 | 9.0 | 0.00 | 0.00 | 0.00 | 67 | 1011.2 |
| 20260509171542 | 72 | 210 | 6.0 | 12.0 | 0.00 | 0.00 | 0.00 | 61 | 1011.3 |
| 20260509170006 | 72 | 209 | 6.0 | 12.0 | 0.00 | 0.00 | 0.00 | 64 | 1011.6 |
| 20260509164524 | 72 | 196 | 4.0 | 10.0 | 0.00 | 0.00 | 0.00 | 64 | 1011.6 |
| 20260509163043 | 71 | 205 | 2.0 | 8.0 | 0.00 | 0.00 | 0.00 | 65 | 1011.5 |
| 20260509161516 | 70 | 131 | 3.0 | 8.0 | 0.00 | 0.00 | 0.00 | 68 | 1011.5 |
| 20260509160041 | 70 | 177 | 3.0 | 9.0 | 0.00 | 0.00 | 0.00 | 69 | 1011.7 |
| 20260509154558 | 69 | 155 | 5.0 | 10.0 | 0.00 | 0.00 | 0.00 | 69 | 1011.7 |
| 20260509154506 | 69 | 191 | 5.0 | 10.0 | 0.00 | 0.00 | 0.00 | 68 | 1011.7 |
| 20260509153028 | 69 | 169 | 3.0 | 9.0 | 0.00 | 0.00 | 0.00 | 71 | 1011.7 |
| 20260509151544 | 69 | 200 | 4.0 | 9.0 | 0.00 | 0.00 | 0.00 | 72 | 1012.4 |
| 20260509150056 | 69 | 290 | 2.0 | 9.0 | 0.00 | 0.00 | 0.00 | 74 | 1012.7 |
| 20260509144526 | 67 | 207 | 3.0 | 8.0 | 0.00 | 0.00 | 0.00 | 77 | 1012.9 |
| 20260509143044 | 66 | 219 | 4.0 | 8.0 | 0.00 | 0.00 | 0.00 | 79 | 1013.1 |
| 20260509141512 | 64 | 224 | 2.0 | 5.0 | 0.00 | 0.00 | 0.00 | 82 | 1012.9 |
| 20260509140047 | 64 | 172 | 3.0 | 8.0 | 0.00 | 0.00 | 0.00 | 83 | 1012.8 |
| 20260509134554 | 65 | 153 | 2.0 | 4.0 | 0.00 | 0.00 | 0.00 | 86 | 1013.0 |
| 20260509133010 | 63 | 226 | 2.0 | 5.0 | 0.00 | 0.00 | 0.00 | 83 | 1013.2 |
| 20260509131534 | 63 | 141 | 2.0 | 5.0 | 0.00 | 0.00 | 0.00 | 85 | 1013.4 |
| 20260509130050 | 62 | 207 | 1.0 | 5.0 | 0.00 | 0.01 | 0.00 | 88 | 1013.7 |
| 20260509124509 | 61 | 231 | 2.0 | 6.0 | 0.00 | 0.01 | 0.00 | 88 | 1013.3 |
| 20260509123024 | 60 | 231 | 0.0 | 3.0 | 0.00 | 0.01 | 0.00 | 90 | 1013.3 |
| 20260509121543 | 58 | 231 | 0.0 | 2.0 | 0.00 | 0.01 | 0.00 | 93 | 1013.3 |
| 20260509120016 | 57 | 158 | 1.0 | 3.0 | 0.00 | 0.01 | 0.00 | 96 | 1013.6 |
| 20260509114535 | 55 | 188 | 1.0 | 3.0 | 0.00 | 0.01 | 0.00 | 98 | 1013.5 |
| 20260509113100 | 54 | 159 | 0.0 | 1.0 | 0.00 | 0.01 | 0.00 | 98 | 1013.5 |
| 20260509111515 | 53 | 170 | 0.0 | 0.0 | 0.00 | 0.01 | 0.00 | 98 | 1013.3 |
| 20260509110042 | 52 | 170 | 0.0 | 1.0 | 0.00 | 0.01 | 0.00 | 98 | 1013.0 |
| 20260509104504 | 50 | 161 | 0.0 | 0.0 | 0.00 | 0.01 | 0.00 | 97 | 1012.8 |
| 20260509103038 | 50 | 161 | 0.0 | 0.0 | 0.00 | 0.01 | 0.00 | 97 | 1012.8 |
| 20260509101606 | 51 | 161 | 0.0 | 1.0 | 0.00 | 0.01 | 0.00 | 97 | 1012.6 |
| 20260509100032 | 51 | 166 | 0.0 | 0.0 | 0.00 | 0.01 | 0.00 | 97 | 1012.4 |
| 20260509094600 | 51 | 166 | 0.0 | 0.0 | 0.00 | 0.01 | 0.00 | 96 | 1012.4 |
| 20260509093024 | 52 | 166 | 0.0 | 0.0 | 0.00 | 0.01 | 0.00 | 97 | 1012.4 |
| 20260509091548 | 51 | 166 | 0.0 | 0.0 | 0.00 | 0.01 | 0.00 | 96 | 1012.4 |
| 20260509090010 | 51 | 166 | 0.0 | 0.0 | 0.00 | 0.01 | 0.00 | 96 | 1013.0 |
| 20260509084533 | 52 | 166 | 0.0 | 0.0 | 0.00 | 0.01 | 0.00 | 96 | 1013.2 |
| 20260509083105 | 52 | 166 | 0.0 | 0.0 | 0.00 | 0.01 | 0.00 | 95 | 1013.4 |
| 20260509081515 | 53 | 166 | 0.0 | 0.0 | 0.00 | 0.01 | 0.00 | 95 | 1013.5 |
| 20260509080044 | 53 | 166 | 0.0 | 0.0 | 0.00 | 0.01 | 0.00 | 94 | 1013.4 |
| 20260509074613 | 53 | 151 | 0.0 | 0.0 | 0.00 | 0.01 | 0.00 | 94 | 1013.4 |
| 20260509073033 | 53 | 150 | 0.0 | 0.0 | 0.00 | 0.01 | 0.00 | 94 | 1013.4 |
| 20260509071548 | 53 | 152 | 0.0 | 0.0 | 0.00 | 0.01 | 0.00 | 93 | 1013.5 |
| 20260509070059 | 53 | 152 | 0.0 | 0.0 | 0.00 | 0.01 | 0.00 | 92 | 1013.8 |
| 20260509064523 | 54 | 152 | 0.0 | 0.0 | 0.00 | 0.01 | 0.00 | 91 | 1013.7 |
| 20260509063048 | 55 | 152 | 0.0 | 0.0 | 0.00 | 0.01 | 0.00 | 90 | 1013.9 |
| 20260509061557 | 55 | 152 | 0.0 | 0.0 | 0.00 | 0.01 | 0.00 | 89 | 1014.2 |
| 20260509060027 | 56 | 152 | 0.0 | 0.0 | 0.00 | 0.01 | 0.00 | 87 | 1014.6 |
| 20260509054545 | 56 | 151 | 0.0 | 0.0 | 0.00 | 0.01 | 0.00 | 86 | 1014.7 |
| 20260509053013 | 57 | 153 | 0.0 | 0.0 | 0.00 | 0.01 | 0.00 | 85 | 1014.7 |
| 20260509051531 | 57 | 151 | 0.0 | 2.0 | 0.00 | 0.01 | 0.00 | 84 | 1014.8 |
| 20260509050107 | 57 | 156 | 0.0 | 3.0 | 0.00 | 0.01 | 0.00 | 83 | 1014.9 |
| 20260509044515 | 58 | 167 | 0.0 | 3.0 | 0.00 | 0.01 | 0.00 | 82 | 1015.0 |
| 20260509043052 | 58 | 232 | 0.0 | 2.0 | 0.00 | 0.01 | 0.00 | 82 | 1014.9 |
| 20260509041503 | 58 | 191 | 0.0 | 3.0 | 0.00 | 0.01 | 0.00 | 81 | 1014.8 |
| 20260509040027 | 58 | 177 | 0.0 | 2.0 | 0.00 | 0.01 | 0.01 | 80 | 1014.8 |
| 20260509034545 | 58 | 152 | 0.0 | 1.0 | 0.00 | 0.01 | 0.01 | 79 | 1015.1 |
| 20260509033011 | 59 | 162 | 0.0 | 2.0 | 0.00 | 0.01 | 0.01 | 78 | 1015.1 |
| 20260509031528 | 59 | 162 | 0.0 | 2.0 | 0.00 | 0.01 | 0.01 | 78 | 1015.1 |
| 20260509030055 | 59 | 196 | 0.0 | 5.0 | 0.00 | 0.01 | 0.01 | 77 | 1015.0 |
| 20260509024525 | 60 | 162 | 0.0 | 3.0 | 0.00 | 0.01 | 0.01 | 77 | 1015.2 |
| 20260509023047 | 60 | 134 | 0.0 | 3.0 | 0.00 | 0.01 | 0.01 | 78 | 1015.1 |
| 20260509021509 | 60 | 198 | 1.0 | 4.0 | 0.00 | 0.01 | 0.01 | 78 | 1015.3 |
| 20260509020031 | 60 | 175 | 2.0 | 5.0 | 0.00 | 0.01 | 0.01 | 79 | 1015.2 |
| 20260509014548 | 58 | 93 | 0.0 | 1.0 | 0.00 | 0.01 | 0.01 | 83 | 1014.9 |
| 20260509013023 | 58 | 151 | 0.0 | 0.0 | 0.00 | 0.01 | 0.01 | 84 | 1014.8 |
| 20260509011559 | 58 | 151 | 0.0 | 0.0 | 0.00 | 0.01 | 0.01 | 82 | 1014.7 |
| 20260509010025 | 59 | 151 | 0.0 | 0.0 | 0.00 | 0.16 | 0.01 | 78 | 1014.4 |
| 20260509004551 | 60 | 151 | 0.0 | 0.0 | 0.00 | 0.16 | 0.01 | 78 | 1014.3 |
| 20260509003008 | 61 | 151 | 0.0 | 0.0 | 0.00 | 0.16 | 0.01 | 76 | 1014.1 |
| 20260509001542 | 62 | 151 | 0.0 | 0.0 | 0.00 | 0.16 | 0.01 | 76 | 1014.2 |
| 20260509000009 | 64 | 150 | 0.0 | 0.0 | 0.00 | 0.16 | 0.01 | 64 | 1014.2 |
| 20260508234535 | 65 | 150 | 0.0 | 0.0 | 0.00 | 0.16 | 0.01 | 60 | 1014.1 |
| 20260508233003 | 67 | 146 | 0.0 | 1.0 | 0.00 | 0.16 | 0.01 | 57 | 1014.0 |
| 20260508231529 | 68 | 164 | 0.0 | 1.0 | 0.00 | 0.16 | 0.01 | 56 | 1014.0 |
| 20260508230044 | 69 | 202 | 0.0 | 4.0 | 0.00 | 0.16 | 0.01 | 53 | 1013.9 |
| 20260508224521 | 70 | 207 | 1.0 | 4.0 | 0.00 | 0.16 | 0.01 | 49 | 1013.9 |
| 20260508223040 | 71 | 235 | 0.0 | 4.0 | 0.00 | 0.16 | 0.01 | 48 | 1013.7 |
| 20260508221506 | 70 | 205 | 1.0 | 4.0 | 0.00 | 0.16 | 0.01 | 47 | 1013.7 |
| 20260508220047 | 71 | 212 | 2.0 | 4.0 | 0.00 | 0.16 | 0.01 | 47 | 1013.6 |
| 20260508214556 | 72 | 217 | 2.0 | 6.0 | 0.00 | 0.16 | 0.01 | 46 | 1013.6 |
| 20260508213028 | 72 | 263 | 1.0 | 6.0 | 0.00 | 0.16 | 0.01 | 46 | 1013.7 |
| 20260508211546 | 72 | 241 | 2.0 | 6.0 | 0.00 | 0.16 | 0.01 | 44 | 1013.8 |
| 20260508210022 | 72 | 345 | 2.0 | 5.0 | 0.00 | 0.35 | 0.01 | 43 | 1014.0 |
| 20260508204537 | 73 | 140 | 2.0 | 6.0 | 0.00 | 0.35 | 0.01 | 44 | 1014.0 |
| 20260508203054 | 73 | 205 | 1.0 | 6.0 | 0.00 | 0.35 | 0.01 | 45 | 1014.4 |
| 20260508201510 | 72 | 268 | 2.0 | 7.0 | 0.00 | 0.35 | 0.01 | 45 | 1014.3 |
| 20260508200045 | 72 | 212 | 3.0 | 8.0 | 0.00 | 0.40 | 0.01 | 46 | 1014.5 |
| 20260508194514 | 71 | 274 | 2.0 | 5.0 | 0.00 | 0.40 | 0.01 | 46 | 1014.6 |
| 20260508193039 | 71 | 328 | 0.0 | 4.0 | 0.00 | 0.40 | 0.01 | 46 | 1014.9 |
| 20260508191510 | 71 | 197 | 3.0 | 7.0 | 0.00 | 0.40 | 0.01 | 43 | 1015.1 |
| 20260508190024 | 72 | 221 | 3.0 | 7.0 | 0.00 | 0.41 | 0.01 | 43 | 1015.4 |
| 20260508184548 | 72 | 224 | 3.0 | 8.0 | 0.00 | 0.41 | 0.01 | 45 | 1015.4 |